Time,TemperatureF,DewpointF,PressureIn,WindDirection,WindDirectionDegrees,WindSpeedMPH,WindSpeedGustMPH,Humidity,HourlyPrecipIn,Conditions,Clouds,dailyrainin,SoftwareType,DateUTC
2013-05-27 00:03:00,54.0,34.0,30.17,NW,311,0.0,0.0,46,0.00,,,0.00,,2013-05-27 04:03:00,
2013-05-27 00:12:00,54.0,34.0,30.17,NW,311,0.0,0.0,46,0.00,,,0.00,,2013-05-27 04:12:00,
2013-05-27 00:23:00,54.0,34.0,30.17,NW,310,0.0,0.0,47,0.00,,,0.00,,2013-05-27 04:23:00,
2013-05-27 00:33:00,53.0,35.0,30.17,NW,314,0.0,0.0,50,0.00,,,0.00,,2013-05-27 04:33:00,
2013-05-27 00:43:00,53.0,35.0,30.17,NW,314,0.0,0.0,50,0.00,,,0.00,,2013-05-27 04:43:00,
2013-05-27 00:52:00,53.0,35.0,30.17,NW,314,0.0,0.0,50,0.00,,,0.00,,2013-05-27 04:52:00,
2013-05-27 01:02:00,53.0,35.0,30.17,NW,314,0.0,0.0,50,0.00,,,0.00,,2013-05-27 05:02:00,
2013-05-27 01:12:00,53.0,35.0,30.17,NW,314,0.0,0.0,50,0.00,,,0.00,,2013-05-27 05:12:00,
2013-05-27 01:32:00,52.0,34.0,30.18,NW,313,2.0,3.0,51,0.00,,,0.00,,2013-05-27 05:32:00,
2013-05-27 01:42:00,52.0,34.0,30.18,NW,313,2.0,3.0,51,0.00,,,0.00,,2013-05-27 05:42:00,
2013-05-27 01:52:00,52.0,35.0,30.18,NW,310,0.0,3.0,52,0.00,,,0.00,,2013-05-27 05:52:00,
2013-05-27 02:02:00,52.0,35.0,30.18,NW,310,0.0,3.0,52,0.00,,,0.00,,2013-05-27 06:02:00,
2013-05-27 02:11:00,52.0,35.0,30.18,NW,310,0.0,3.0,52,0.00,,,0.00,,2013-05-27 06:11:00,
2013-05-27 02:22:00,52.0,35.0,30.17,NW,311,0.0,1.0,53,0.00,,,0.00,,2013-05-27 06:22:00,
2013-05-27 02:32:00,52.0,35.0,30.17,NW,311,0.0,1.0,53,0.00,,,0.00,,2013-05-27 06:32:00,
2013-05-27 02:42:00,50.0,35.0,30.18,NW,312,0.0,0.0,56,0.00,,,0.00,,2013-05-27 06:42:00,
2013-05-27 02:52:00,50.0,35.0,30.18,NW,312,0.0,0.0,56,0.00,,,0.00,,2013-05-27 06:52:00,
2013-05-27 03:02:00,50.0,35.0,30.18,NW,311,0.0,0.0,57,0.00,,,0.00,,2013-05-27 07:02:00,
2013-05-27 03:11:00,50.0,35.0,30.18,NW,309,0.0,1.0,57,0.00,,,0.00,,2013-05-27 07:11:00,
2013-05-27 03:21:00,50.0,35.0,30.18,NW,309,0.0,1.0,57,0.00,,,0.00,,2013-05-27 07:21:00,
2013-05-27 03:32:00,50.0,35.0,30.18,NW,309,0.0,1.0,57,0.00,,,0.00,,2013-05-27 07:32:00,
2013-05-27 03:42:00,50.0,35.0,30.18,NW,309,0.0,1.0,57,0.00,,,0.00,,2013-05-27 07:42:00,
2013-05-27 03:52:00,49.0,35.0,30.18,NW,312,2.0,2.0,59,0.00,,,0.00,,2013-05-27 07:52:00,
2013-05-27 04:02:00,49.0,35.0,30.18,NW,312,0.0,1.0,59,0.00,,,0.00,,2013-05-27 08:02:00,
2013-05-27 04:11:00,49.0,35.0,30.18,NW,312,0.0,1.0,59,0.00,,,0.00,,2013-05-27 08:11:00,
2013-05-27 04:22:00,49.0,35.0,30.18,NW,312,0.0,1.0,59,0.00,,,0.00,,2013-05-27 08:22:00,
2013-05-27 04:33:00,48.0,36.0,30.18,NW,310,0.0,3.0,62,0.00,,,0.00,,2013-05-27 08:33:00,
2013-05-27 04:42:00,48.0,36.0,30.18,NW,310,0.0,3.0,62,0.00,,,0.00,,2013-05-27 08:42:00,
2013-05-27 04:52:00,48.0,36.0,30.18,NW,310,0.0,3.0,62,0.00,,,0.00,,2013-05-27 08:52:00,
2013-05-27 05:02:00,48.0,36.0,30.18,NW,312,0.0,0.0,62,0.00,,,0.00,,2013-05-27 09:02:00,
2013-05-27 05:11:00,48.0,36.0,30.18,NW,312,0.0,0.0,62,0.00,,,0.00,,2013-05-27 09:11:00,
2013-05-27 05:22:00,48.0,36.0,30.18,NW,312,0.0,0.0,62,0.00,,,0.00,,2013-05-27 09:22:00,
2013-05-27 05:33:00,47.0,36.0,30.19,NW,311,0.0,0.0,65,0.00,,,0.00,,2013-05-27 09:33:00,
2013-05-27 05:42:00,47.0,36.0,30.19,NW,311,0.0,0.0,65,0.00,,,0.00,,2013-05-27 09:42:00,
2013-05-27 05:53:00,47.0,36.0,30.19,NW,311,0.0,0.0,65,0.00,,,0.00,,2013-05-27 09:53:00,
2013-05-27 06:03:00,47.0,37.0,30.19,NW,314,0.0,0.0,67,0.00,,,0.00,,2013-05-27 10:03:00,
2013-05-27 06:12:00,47.0,37.0,30.19,NW,314,0.0,0.0,67,0.00,,,0.00,,2013-05-27 10:12:00,
2013-05-27 06:23:00,47.0,37.0,30.19,NW,314,0.0,0.0,68,0.00,,,0.00,,2013-05-27 10:23:00,
2013-05-27 06:32:00,47.0,37.0,30.19,NW,311,0.0,0.0,68,0.00,,,0.00,,2013-05-27 10:32:00,
2013-05-27 06:42:00,47.0,37.0,30.19,NW,311,0.0,0.0,68,0.00,,,0.00,,2013-05-27 10:42:00,
2013-05-27 06:52:00,47.0,37.0,30.19,NW,311,0.0,0.0,68,0.00,,,0.00,,2013-05-27 10:52:00,
2013-05-27 07:02:00,50.0,36.0,30.20,SSW,200,0.0,3.0,59,0.00,,,0.00,,2013-05-27 11:02:00,
2013-05-27 07:11:00,50.0,36.0,30.20,SSW,200,0.0,3.0,59,0.00,,,0.00,,2013-05-27 11:11:00,
2013-05-27 07:22:00,51.0,37.0,30.20,SSW,199,3.0,4.0,58,0.00,,,0.00,,2013-05-27 11:22:00,
2013-05-27 07:32:00,52.0,36.0,30.20,SSW,195,1.0,2.0,55,0.00,,,0.00,,2013-05-27 11:32:00,
2013-05-27 07:42:00,52.0,36.0,30.20,SSW,195,1.0,2.0,55,0.00,,,0.00,,2013-05-27 11:42:00,
2013-05-27 07:52:00,52.0,36.0,30.20,SSW,195,1.0,2.0,55,0.00,,,0.00,,2013-05-27 11:52:00,
2013-05-27 08:01:00,54.0,37.0,30.21,South,188,1.0,4.0,52,0.00,,,0.00,,2013-05-27 12:01:00,
2013-05-27 08:11:00,54.0,37.0,30.21,South,188,1.0,4.0,52,0.00,,,0.00,,2013-05-27 12:11:00,
2013-05-27 08:22:00,55.0,37.0,30.21,South,188,2.0,3.0,50,0.00,,,0.00,,2013-05-27 12:22:00,
2013-05-27 08:32:00,58.0,35.0,30.21,SSW,209,0.0,3.0,42,0.00,,,0.00,,2013-05-27 12:32:00,
2013-05-27 08:42:00,58.0,35.0,30.21,SSW,209,0.0,3.0,42,0.00,,,0.00,,2013-05-27 12:42:00,
2013-05-27 08:52:00,59.0,35.0,30.21,SW,222,2.0,3.0,40,0.00,,,0.00,,2013-05-27 12:52:00,
2013-05-27 09:02:00,60.0,34.0,30.21,West,264,3.0,5.0,37,0.00,,,0.00,,2013-05-27 13:02:00,
2013-05-27 09:11:00,60.0,34.0,30.21,West,264,3.0,5.0,37,0.00,,,0.00,,2013-05-27 13:11:00,
2013-05-27 09:22:00,61.0,34.0,30.21,West,271,3.0,5.0,36,0.00,,,0.00,,2013-05-27 13:22:00,
2013-05-27 09:32:00,62.0,33.0,30.21,West,269,4.0,6.0,34,0.00,,,0.00,,2013-05-27 13:32:00,
2013-05-27 09:42:00,62.0,33.0,30.21,West,269,4.0,6.0,34,0.00,,,0.00,,2013-05-27 13:42:00,
2013-05-27 09:52:00,63.0,33.0,30.20,SW,231,0.0,5.0,33,0.00,,,0.00,,2013-05-27 13:52:00,
2013-05-27 10:02:00,64.0,34.0,30.20,West,270,3.0,8.0,32,0.00,,,0.00,,2013-05-27 14:02:00,
2013-05-27 10:11:00,64.0,34.0,30.20,West,270,3.0,8.0,32,0.00,,,0.00,,2013-05-27 14:11:00,
2013-05-27 10:22:00,64.0,34.0,30.20,West,270,3.0,8.0,32,0.00,,,0.00,,2013-05-27 14:22:00,
2013-05-27 10:32:00,67.0,34.0,30.20,West,262,3.0,4.0,29,0.00,,,0.00,,2013-05-27 14:32:00,
2013-05-27 10:42:00,67.0,34.0,30.20,West,262,3.0,4.0,29,0.00,,,0.00,,2013-05-27 14:42:00,
2013-05-27 10:52:00,67.0,35.0,30.20,WSW,250,2.0,4.0,30,0.00,,,0.00,,2013-05-27 14:52:00,
2013-05-27 11:02:00,69.0,30.0,30.19,WSW,248,9.0,10.0,23,0.00,,,0.00,,2013-05-27 15:02:00,
2013-05-27 11:11:00,69.0,32.0,30.19,WNW,292,3.0,8.0,25,0.00,,,0.00,,2013-05-27 15:11:00,
2013-05-27 11:21:00,69.0,32.0,30.19,WNW,292,3.0,8.0,25,0.00,,,0.00,,2013-05-27 15:21:00,
2013-05-27 11:33:00,69.0,33.0,30.19,WNW,293,3.0,9.0,26,0.00,,,0.00,,2013-05-27 15:33:00,
2013-05-27 11:43:00,70.0,33.0,30.19,WSW,250,1.0,6.0,25,0.00,,,0.00,,2013-05-27 15:43:00,
2013-05-27 11:53:00,70.0,33.0,30.19,WSW,250,1.0,6.0,25,0.00,,,0.00,,2013-05-27 15:53:00,
2013-05-27 12:03:00,70.0,34.0,30.18,WNW,288,2.0,10.0,26,0.00,,,0.00,,2013-05-27 16:03:00,
2013-05-27 12:12:00,70.0,34.0,30.18,WNW,288,2.0,10.0,26,0.00,,,0.00,,2013-05-27 16:12:00,
2013-05-27 12:23:00,70.0,34.0,30.18,WNW,288,2.0,10.0,26,0.00,,,0.00,,2013-05-27 16:23:00,
2013-05-27 12:33:00,72.0,32.0,30.16,NW,321,3.0,7.0,23,0.00,,,0.00,,2013-05-27 16:33:00,
2013-05-27 12:42:00,72.0,32.0,30.16,NW,321,3.0,7.0,23,0.00,,,0.00,,2013-05-27 16:42:00,
2013-05-27 12:53:00,72.0,32.0,30.16,NW,321,3.0,7.0,23,0.00,,,0.00,,2013-05-27 16:53:00,
2013-05-27 13:02:00,72.0,35.0,30.16,West,259,3.0,8.0,26,0.00,,,0.00,,2013-05-27 17:02:00,
2013-05-27 13:12:00,72.0,30.0,30.16,West,281,3.0,11.0,21,0.00,,,0.00,,2013-05-27 17:12:00,
2013-05-27 13:22:00,72.0,30.0,30.16,West,281,3.0,11.0,21,0.00,,,0.00,,2013-05-27 17:22:00,
2013-05-27 13:32:00,74.0,32.0,30.15,WSW,248,3.0,10.0,21,0.00,,,0.00,,2013-05-27 17:32:00,
2013-05-27 13:43:00,74.0,32.0,30.15,WSW,248,3.0,10.0,21,0.00,,,0.00,,2013-05-27 17:43:00,
2013-05-27 13:52:00,74.0,32.0,30.15,WSW,248,3.0,10.0,21,0.00,,,0.00,,2013-05-27 17:52:00,
2013-05-27 14:02:00,74.0,34.0,30.14,South,188,4.0,10.0,23,0.00,,,0.00,,2013-05-27 18:02:00,
2013-05-27 14:11:00,74.0,34.0,30.14,South,188,4.0,10.0,23,0.00,,,0.00,,2013-05-27 18:11:00,
2013-05-27 14:22:00,75.0,34.0,30.13,West,259,3.0,9.0,22,0.00,,,0.00,,2013-05-27 18:22:00,
2013-05-27 14:32:00,75.0,34.0,30.13,WNW,290,4.0,9.0,22,0.00,,,0.00,,2013-05-27 18:32:00,
2013-05-27 14:42:00,75.0,34.0,30.13,WNW,290,4.0,9.0,22,0.00,,,0.00,,2013-05-27 18:42:00,
2013-05-27 14:52:00,75.0,34.0,30.13,WNW,290,4.0,9.0,22,0.00,,,0.00,,2013-05-27 18:52:00,
2013-05-27 15:01:00,77.0,35.0,30.12,WNW,293,4.0,14.0,22,0.00,,,0.00,,2013-05-27 19:01:00,
2013-05-27 15:11:00,77.0,35.0,30.12,WNW,293,4.0,14.0,22,0.00,,,0.00,,2013-05-27 19:11:00,
2013-05-27 15:22:00,77.0,35.0,30.12,WNW,293,4.0,14.0,22,0.00,,,0.00,,2013-05-27 19:22:00,
2013-05-27 15:32:00,76.0,37.0,30.11,NW,311,3.0,10.0,24,0.00,,,0.00,,2013-05-27 19:32:00,
2013-05-27 15:42:00,76.0,37.0,30.11,NW,311,3.0,10.0,24,0.00,,,0.00,,2013-05-27 19:42:00,
2013-05-27 15:52:00,77.0,36.0,30.11,SSW,204,5.0,10.0,23,0.00,,,0.00,,2013-05-27 19:52:00,
2013-05-27 16:02:00,77.0,36.0,30.11,SSW,204,5.0,10.0,23,0.00,,,0.00,,2013-05-27 20:02:00,
2013-05-27 16:11:00,77.0,36.0,30.11,SSW,204,5.0,10.0,23,0.00,,,0.00,,2013-05-27 20:11:00,
2013-05-27 16:22:00,76.0,37.0,30.11,South,176,4.0,6.0,24,0.00,,,0.00,,2013-05-27 20:22:00,
2013-05-27 16:32:00,75.0,35.0,30.10,NNW,335,9.0,9.0,23,0.00,,,0.00,,2013-05-27 20:32:00,
2013-05-27 16:42:00,76.0,37.0,30.10,West,267,2.0,8.0,24,0.00,,,0.00,,2013-05-27 20:42:00,
2013-05-27 16:52:00,76.0,37.0,30.10,West,267,2.0,8.0,24,0.00,,,0.00,,2013-05-27 20:52:00,
2013-05-27 17:01:00,76.0,37.0,30.09,South,179,3.0,10.0,24,0.00,,,0.00,,2013-05-27 21:01:00,
2013-05-27 17:12:00,76.0,37.0,30.09,SW,228,7.0,14.0,24,0.00,,,0.00,,2013-05-27 21:12:00,
2013-05-27 17:21:00,76.0,37.0,30.09,SW,228,7.0,14.0,24,0.00,,,0.00,,2013-05-27 21:21:00,
2013-05-27 17:33:00,76.0,37.0,30.09,SW,228,7.0,14.0,24,0.00,,,0.00,,2013-05-27 21:33:00,
2013-05-27 17:43:00,75.0,36.0,30.09,WNW,300,10.0,10.0,24,0.00,,,0.00,,2013-05-27 21:43:00,
2013-05-27 17:53:00,75.0,36.0,30.09,WNW,300,10.0,10.0,24,0.00,,,0.00,,2013-05-27 21:53:00,
2013-05-27 18:03:00,75.0,36.0,30.09,WNW,300,10.0,10.0,24,0.00,,,0.00,,2013-05-27 22:03:00,
2013-05-27 18:13:00,75.0,35.0,30.09,SW,228,3.0,13.0,23,0.00,,,0.00,,2013-05-27 22:13:00,
2013-05-27 18:22:00,75.0,35.0,30.09,SW,228,3.0,13.0,23,0.00,,,0.00,,2013-05-27 22:22:00,
2013-05-27 18:33:00,75.0,35.0,30.09,SW,228,3.0,13.0,23,0.00,,,0.00,,2013-05-27 22:33:00,
2013-05-27 18:42:00,75.0,35.0,30.09,SW,228,3.0,13.0,23,0.00,,,0.00,,2013-05-27 22:42:00,
2013-05-27 18:52:00,75.0,35.0,30.09,SW,228,3.0,13.0,23,0.00,,,0.00,,2013-05-27 22:52:00,
2013-05-27 19:32:00,72.0,35.0,30.10,WNW,290,3.0,10.0,26,0.00,,,0.00,,2013-05-27 23:32:00,
2013-05-27 19:42:00,72.0,35.0,30.10,WNW,290,3.0,10.0,26,0.00,,,0.00,,2013-05-27 23:42:00,
2013-05-27 19:52:00,72.0,35.0,30.10,WNW,290,3.0,10.0,26,0.00,,,0.00,,2013-05-27 23:52:00,
2013-05-27 20:01:00,71.0,35.0,30.10,WSW,245,3.0,10.0,27,0.00,,,0.00,,2013-05-28 00:01:00,
2013-05-27 20:11:00,71.0,35.0,30.10,WSW,245,3.0,10.0,27,0.00,,,0.00,,2013-05-28 00:11:00,
2013-05-27 20:22:00,71.0,36.0,30.10,SW,230,3.0,9.0,28,0.00,,,0.00,,2013-05-28 00:22:00,
2013-05-27 20:32:00,70.0,36.0,30.10,WNW,285,6.0,9.0,29,0.00,,,0.00,,2013-05-28 00:32:00,
2013-05-27 20:42:00,70.0,36.0,30.10,WNW,285,6.0,9.0,29,0.00,,,0.00,,2013-05-28 00:42:00,
2013-05-27 20:52:00,70.0,37.0,30.10,WSW,248,3.0,4.0,30,0.00,,,0.00,,2013-05-28 00:52:00,
2013-05-27 21:01:00,70.0,37.0,30.10,WSW,248,3.0,4.0,30,0.00,,,0.00,,2013-05-28 01:01:00,
2013-05-27 21:11:00,70.0,37.0,30.10,WSW,248,3.0,4.0,30,0.00,,,0.00,,2013-05-28 01:11:00,
2013-05-27 21:22:00,69.0,38.0,30.11,WSW,256,3.0,6.0,32,0.00,,,0.00,,2013-05-28 01:22:00,
2013-05-27 21:32:00,69.0,38.0,30.11,West,265,5.0,8.0,32,0.00,,,0.00,,2013-05-28 01:32:00,
2013-05-27 21:42:00,69.0,38.0,30.11,West,265,5.0,8.0,32,0.00,,,0.00,,2013-05-28 01:42:00,
2013-05-27 21:52:00,69.0,38.0,30.11,West,265,5.0,8.0,32,0.00,,,0.00,,2013-05-28 01:52:00,
2013-05-27 22:02:00,69.0,38.0,30.11,West,265,5.0,8.0,32,0.00,,,0.00,,2013-05-28 02:02:00,
2013-05-27 22:22:00,68.0,39.0,30.12,West,271,3.0,5.0,34,0.00,,,0.00,,2013-05-28 02:22:00,
2013-05-27 22:32:00,67.0,38.0,30.12,West,259,0.0,8.0,34,0.00,,,0.00,,2013-05-28 02:32:00,
2013-05-27 22:42:00,67.0,38.0,30.12,West,259,0.0,8.0,34,0.00,,,0.00,,2013-05-28 02:42:00,
2013-05-27 22:52:00,67.0,38.0,30.12,West,271,0.0,4.0,34,0.00,,,0.00,,2013-05-28 02:52:00,
2013-05-27 23:01:00,67.0,38.0,30.13,West,263,2.0,5.0,34,0.00,,,0.00,,2013-05-28 03:01:00,
2013-05-27 23:11:00,67.0,38.0,30.13,West,263,2.0,5.0,34,0.00,,,0.00,,2013-05-28 03:11:00,
2013-05-27 23:22:00,67.0,38.0,30.13,West,263,2.0,5.0,34,0.00,,,0.00,,2013-05-28 03:22:00,
2013-05-27 23:33:00,67.0,38.0,30.13,West,263,2.0,5.0,34,0.00,,,0.00,,2013-05-28 03:33:00,
2013-05-27 23:43:00,67.0,38.0,30.13,West,263,2.0,5.0,34,0.00,,,0.00,,2013-05-28 03:43:00,
2013-05-27 23:53:00,66.0,38.0,30.13,West,276,2.0,3.0,36,0.00,,,0.00,,2013-05-28 03:53:00,